TimeEDT,TemperatureF,Dew PointF,Humidity,Sea Level PressureIn,VisibilityMPH,Wind Direction,Wind SpeedMPH,Gust SpeedMPH,PrecipitationIn,Events,Conditions,WindDirDegrees,DateUTC
12:13 AM,38.5,38.5,100,29.98,10.0,Calm,Calm,-,N/A,,Clear,0,2012-10-01 04:13:00
12:33 AM,35.1,35.1,100,29.97,0.5,Calm,Calm,-,N/A,Fog,Fog,0,2012-10-01 04:33:00
12:53 AM,37.0,37.0,100,29.96,10.0,Calm,Calm,-,N/A,,Clear,0,2012-10-01 04:53:00
1:13 AM,36.9,36.9,100,29.96,10.0,Calm,Calm,-,N/A,,Clear,0,2012-10-01 05:13:00
1:33 AM,35.1,35.1,100,29.95,10.0,Calm,Calm,-,N/A,,Clear,0,2012-10-01 05:33:00
1:53 AM,34.7,34.7,100,29.95,7.0,Calm,Calm,-,N/A,,Clear,0,2012-10-01 05:53:00
2:13 AM,34.9,34.9,100,29.96,10.0,Calm,Calm,-,N/A,,Clear,0,2012-10-01 06:13:00
2:34 AM,34.7,34.7,100,29.95,1.2,Calm,Calm,-,N/A,,Mist,0,2012-10-01 06:34:00
2:54 AM,32.0,32.0,100,29.95,1.8,Calm,Calm,-,N/A,,Mist,0,2012-10-01 06:54:00
3:34 AM,34.5,34.5,100,29.94,3.0,Calm,Calm,-,N/A,,Clear,0,2012-10-01 07:34:00
3:54 AM,32.0,32.0,100,29.93,7.0,Calm,Calm,-,N/A,,Clear,0,2012-10-01 07:54:00
4:34 AM,30.9,30.9,100,29.93,10.0,Calm,Calm,-,N/A,,Clear,0,2012-10-01 08:34:00
4:54 AM,31.1,31.1,100,29.92,10.0,Calm,Calm,-,N/A,,Clear,0,2012-10-01 08:54:00
5:14 AM,30.2,30.2,100,29.93,3.0,Calm,Calm,-,N/A,,Clear,0,2012-10-01 09:14:00
5:34 AM,30.0,30.0,100,29.93,1.2,Calm,Calm,-,N/A,,Mist,0,2012-10-01 09:34:00
6:15 AM,31.1,31.1,100,29.93,0.5,Calm,Calm,-,N/A,Fog,Light Freezing Fog,0,2012-10-01 10:15:00
6:35 AM,30.0,30.0,100,29.93,0.8,Calm,Calm,-,N/A,,Overcast,0,2012-10-01 10:35:00
6:50 AM,30.2,30.2,100,29.94,0.2,Calm,Calm,-,N/A,Fog,Light Freezing Fog,0,2012-10-01 10:50:00
7:10 AM,30.2,30.2,100,29.94,2.0,Calm,Calm,-,N/A,,Scattered Clouds,0,2012-10-01 11:10:00
7:30 AM,29.8,29.8,100,29.93,10.0,Calm,Calm,-,N/A,,Clear,0,2012-10-01 11:30:00
7:50 AM,28.0,28.0,100,29.94,10.0,Calm,Calm,-,N/A,,Clear,0,2012-10-01 11:50:00
8:10 AM,29.8,29.8,100,29.94,10.0,Calm,Calm,-,N/A,,Clear,0,2012-10-01 12:10:00
8:30 AM,33.1,33.1,100,29.95,10.0,Calm,Calm,-,N/A,,Clear,0,2012-10-01 12:30:00
8:51 AM,34.7,34.7,100,29.95,10.0,Calm,Calm,-,N/A,,Clear,0,2012-10-01 12:51:00
9:11 AM,37.0,37.0,100,29.94,10.0,Calm,Calm,-,N/A,,Clear,0,2012-10-01 13:11:00
9:31 AM,39.9,39.9,100,29.94,10.0,Calm,Calm,-,N/A,,Clear,0,2012-10-01 13:31:00
9:51 AM,42.6,42.6,100,29.94,10.0,Calm,Calm,-,N/A,,Clear,0,2012-10-01 13:51:00
10:11 AM,47.3,46.6,97,29.94,10.0,Calm,Calm,-,N/A,,Clear,0,2012-10-01 14:11:00
10:31 AM,52.9,45.0,74,29.94,10.0,Calm,Calm,-,N/A,,Clear,0,2012-10-01 14:31:00
10:51 AM,54.9,44.2,67,29.95,10.0,Calm,Calm,-,N/A,,Clear,0,2012-10-01 14:51:00
11:11 AM,57.4,43.2,59,29.94,10.0,NW,4.6,-,N/A,,Clear,310,2012-10-01 15:11:00
11:31 AM,59.9,43.2,54,29.94,10.0,SW,4.6,-,N/A,,Clear,220,2012-10-01 15:31:00
11:51 AM,59.9,42.8,53,29.94,10.0,SW,5.8,-,N/A,,Clear,220,2012-10-01 15:51:00
12:11 PM,59.9,41.9,51,29.93,10.0,SSW,6.9,-,N/A,,Clear,210,2012-10-01 16:11:00
12:32 PM,61.0,42.1,50,29.93,10.0,SSW,6.9,-,N/A,,Clear,200,2012-10-01 16:32:00
12:52 PM,61.5,41.9,49,29.93,10.0,SSW,5.8,-,N/A,,Clear,210,2012-10-01 16:52:00
1:12 PM,63.1,39.7,42,29.93,10.0,SW,6.9,-,N/A,,Clear,230,2012-10-01 17:12:00
1:32 PM,63.3,37.9,39,29.92,10.0,WSW,5.8,-,N/A,,Clear,250,2012-10-01 17:32:00
2:12 PM,64.4,38.3,38,29.90,10.0,SW,4.6,-,N/A,,Clear,220,2012-10-01 18:12:00
2:32 PM,66.2,40.3,39,29.89,10.0,South,3.5,-,N/A,,Clear,180,2012-10-01 18:32:00
2:53 PM,65.5,39.4,38,29.88,10.0,SW,4.6,-,N/A,,Clear,230,2012-10-01 18:53:00
3:13 PM,66.7,39.6,37,29.88,10.0,Calm,Calm,-,N/A,,Clear,0,2012-10-01 19:13:00
4:13 PM,65.1,38.5,37,29.87,10.0,Calm,Calm,-,N/A,,Clear,0,2012-10-01 20:13:00
4:33 PM,66.0,41.0,40,29.87,10.0,West,4.6,-,N/A,,Clear,280,2012-10-01 20:33:00
4:53 PM,64.9,41.0,42,29.87,10.0,WNW,4.6,-,N/A,,Clear,290,2012-10-01 20:53:00
5:13 PM,64.2,40.8,42,29.87,10.0,NW,3.5,-,N/A,,Clear,310,2012-10-01 21:13:00
5:34 PM,63.5,41.7,45,29.86,10.0,NW,4.6,-,N/A,,Clear,320,2012-10-01 21:34:00
5:54 PM,62.6,43.3,49,29.87,10.0,NW,3.5,-,N/A,,Clear,320,2012-10-01 21:54:00
6:14 PM,61.2,44.6,54,29.87,10.0,Calm,Calm,-,N/A,,Clear,0,2012-10-01 22:14:00
6:34 PM,60.4,45.1,57,29.88,10.0,Calm,Calm,-,N/A,,Clear,0,2012-10-01 22:34:00
6:54 PM,57.4,46.4,67,29.87,10.0,Calm,Calm,-,N/A,,Clear,0,2012-10-01 22:54:00
7:14 PM,55.0,46.2,72,29.87,10.0,Calm,Calm,-,N/A,,Clear,0,2012-10-01 23:14:00
7:34 PM,54.9,48.9,80,29.87,10.0,Calm,Calm,-,N/A,,Clear,0,2012-10-01 23:34:00
7:54 PM,53.6,48.2,82,29.87,10.0,Calm,Calm,-,N/A,,Clear,0,2012-10-01 23:54:00
8:14 PM,50.0,45.9,86,29.87,10.0,Calm,Calm,-,N/A,,Clear,0,2012-10-02 00:14:00
8:35 PM,49.8,45.9,86,29.87,10.0,Calm,Calm,-,N/A,,Clear,0,2012-10-02 00:35:00
8:55 PM,47.5,46.4,96,29.88,7.0,Calm,Calm,-,N/A,,Clear,0,2012-10-02 00:55:00
9:10 PM,47.3,46.4,97,29.88,10.0,Calm,Calm,-,N/A,,Clear,0,2012-10-02 01:10:00
9:30 PM,47.3,46.6,97,29.88,10.0,Calm,Calm,-,N/A,,Clear,0,2012-10-02 01:30:00
9:50 PM,50.0,47.8,92,29.88,10.0,Calm,Calm,-,N/A,,Clear,0,2012-10-02 01:50:00
10:10 PM,47.3,46.2,96,29.89,10.0,Calm,Calm,-,N/A,,Clear,0,2012-10-02 02:10:00
10:30 PM,47.3,46.4,97,29.89,10.0,Calm,Calm,-,N/A,,Clear,0,2012-10-02 02:30:00
10:50 PM,43.2,41.9,95,29.89,10.0,Calm,Calm,-,N/A,,Clear,0,2012-10-02 02:50:00
11:11 PM,44.6,44.1,98,29.89,10.0,Calm,Calm,-,N/A,,Clear,0,2012-10-02 03:11:00
11:31 PM,43.9,43.7,99,29.89,10.0,Calm,Calm,-,N/A,,Clear,0,2012-10-02 03:31:00
11:51 PM,41.5,41.2,99,29.89,10.0,Calm,Calm,-,N/A,,Clear,0,2012-10-02 03:51:00